Location: Memphis International Airport Police
(35.0443°N, 89.9815°W)
Time: 01:33:33
(UTC+00:00)

NOSS 2-2 (D) - Pass Details

Date: 26 September 2023
Orbit: 414 x 1757 km, 63.3° (Epoch: 29 October)

Event Time Altitude Azimuth Distance (km) Brightness Sun altitude
Exits shadow 10:21:16 - 327° (NNW) 2,866 6.8 -19.0°
Reaches altitude 10° 10:22:47 10° 327° (NNW) 2,289 6.2 -18.7°
Maximum altitude 10:28:06 83° 241° (WSW) 971 4.4 -17.7°
Drops below altitude 10° 10:35:43 10° 154° (SSE) 3,230 7.4 -16.1°
Sets 10:39:00 0° 153° (SSE) 4,406 8.1 -15.5°
